Romorantin, France

1:04 PM CEST on August 30, 2016 (GMT +0200)
Pruniers Air Base

Weather History for LFYR - September, 2013

Change the Weather History Date:

Wednesday, September 4, 2013

  Actual Average (LFOT) Record (LFOT)
Temperature  
Mean Temperature 68 °F -  
Max Temperature 91 °F 73 °F 93 °F (2005)
Min Temperature 46 °F 54 °F 46 °F (2000)
Cooling Degree Days 4    
Growing Degree Days 18 (Base 50)    
Moisture  
Dew Point 53 °F    
Average Humidity 71    
Maximum Humidity 100    
Minimum Humidity 21    
Precipitation  
Precipitation 0.00 in - - ()
Sea Level Pressure  
Sea Level Pressure 30.11 in    
Wind  
Wind Speed 1 mph ()    
Max Wind Speed 8 mph    
Max Gust Speed -    
Visibility 4.7 miles    
Events Fog    
Averages and records for this station are not official NWS values.
T = Trace of Precipitation, MM = Missing Value Source: Averaged Metar Reports

Daily Weather History Graph

Daily Weather History Graph

Search for Another Location

Airport or City:

Trip Planner

Search our weather history database for the weather conditions in past years. The results will help you decide how hot, cold, wet, or windy it might be!

Date:

Astronomy

Sep. 04, 2013 Rise Set
Actual Time 7:16 AM CEST 8:27 PM CEST
Civil Twilight 6:44 AM CEST 8:58 PM CEST
Nautical Twilight 6:06 AM CEST 9:36 PM CEST
Astronomical Twilight 5:26 AM CEST 10:16 PM CEST
Moon 6:12 AM CEST (9/4) 7:37 PM CEST (9/4)
Length of Visible Light 14h 14m
Length of Day
13h 11m
Waning Crescent, 1% of the Moon is Illuminated
Sep 4
Waning Crescent
Sep 5
New
Sep 12
First Quarter
Sep 19
Full
Sep 27
Last Quarter

Hourly Weather History & Observations

Time (CEST) Temp. Heat Index Dew Point Humidity Pressure Visibility Wind Dir Wind Speed Gust Speed Precip Events Conditions
12:00 AM 53.6 °F - 51.8 °F 94% 30.21 in 6.2 mi Calm Calm - N/A   Unknown
12:30 AM 53.6 °F - 53.6 °F 100% 30.21 in 6.2 mi Calm Calm - N/A   Unknown
1:00 AM 53.6 °F - 53.6 °F 100% 30.21 in 0.3 mi Calm Calm - N/A Fog Fog
1:30 AM 51.8 °F - 51.8 °F 100% 30.21 in 0.9 mi Calm Calm - N/A Fog Patches of Fog
2:00 AM 51.8 °F - 50.0 °F 94% 30.18 in 0.1 mi Calm Calm - N/A Fog Fog
2:30 AM 51.8 °F - 51.8 °F 100% 30.18 in 6.2 mi Calm Calm - N/A Fog Patches of Fog
3:00 AM 50.0 °F - 50.0 °F 100% 30.18 in 0.2 mi Calm Calm - N/A Fog Fog
3:30 AM 50.0 °F - 50.0 °F 100% 30.18 in 0.2 mi Calm Calm - N/A Fog Fog
4:00 AM 50.0 °F - 50.0 °F 100% 30.18 in 0.3 mi Calm Calm - N/A Fog Fog
4:30 AM 50.0 °F - 50.0 °F 100% 30.18 in 6.2 mi North 1.2 mph - N/A   Unknown
5:00 AM 48.2 °F - 48.2 °F 100% 30.15 in 0.2 mi Calm Calm - N/A Fog Fog
5:30 AM 48.2 °F - 48.2 °F 100% 30.15 in 0.2 mi Calm Calm - N/A Fog Fog
6:00 AM 48.2 °F - 48.2 °F 100% 30.15 in 6.2 mi Variable 1.2 mph - N/A   Unknown
6:30 AM 48.2 °F - 48.2 °F 100% 30.15 in 0.2 mi Calm Calm - N/A Fog Fog
7:00 AM 46.4 °F - 46.4 °F 100% 30.15 in 0.2 mi Calm Calm - N/A Fog Fog
7:30 AM 46.4 °F - 46.4 °F 100% 30.15 in 0.1 mi Calm Calm - N/A Fog Fog
8:00 AM 50.0 °F - 50.0 °F 100% 30.15 in 1.1 mi Calm Calm - N/A   Mist
8:30 AM 53.6 °F - 53.6 °F 100% 30.15 in 6.2 mi Calm Calm - N/A   Unknown
9:00 AM 59.0 °F - 57.2 °F 94% 30.15 in 6.2 mi Calm Calm - N/A   Unknown
9:30 AM 64.4 °F - 57.2 °F 77% 30.15 in 6.2 mi Variable 2.3 mph - N/A   Unknown
10:00 AM 68.0 °F - 55.4 °F 64% 30.15 in 6.2 mi East 8.1 mph - N/A   Unknown
10:30 AM 69.8 °F - 55.4 °F 60% 30.15 in 6.2 mi East 6.9 mph - N/A   Unknown
11:00 AM 71.6 °F - 57.2 °F 60% 30.15 in 6.2 mi ESE 4.6 mph - N/A   Unknown
11:30 AM 75.2 °F - 57.2 °F 53% 30.12 in 6.2 mi ESE 3.5 mph - N/A   Unknown
12:00 PM 77.0 °F - 59.0 °F 54% 30.12 in 6.2 mi Variable 3.5 mph - N/A   Unknown
12:30 PM 78.8 °F - 57.2 °F 47% 30.12 in 6.2 mi Variable 3.5 mph - N/A   Unknown
1:00 PM 80.6 °F 80.8 °F 57.2 °F 45% 30.12 in 6.2 mi SE 3.5 mph - N/A   Unknown
1:30 PM 82.4 °F 82.0 °F 57.2 °F 42% 30.09 in 6.2 mi Variable 3.5 mph - N/A   Unknown
2:00 PM 84.2 °F 83.0 °F 55.4 °F 37% 30.09 in 6.2 mi Variable 2.3 mph - N/A   Unknown
2:30 PM 86.0 °F 84.2 °F 53.6 °F 33% 30.09 in 6.2 mi Variable 2.3 mph - N/A   Unknown
3:00 PM 87.8 °F - 51.8 °F 29% 30.06 in 6.2 mi Variable 2.3 mph - N/A   Unknown
3:30 PM 87.8 °F - 51.8 °F 29% 30.06 in 6.2 mi Variable 3.5 mph - N/A   Unknown
4:00 PM 89.6 °F - 50.0 °F 26% 30.06 in 6.2 mi Variable 2.3 mph - N/A   Unknown
4:30 PM 89.6 °F - 50.0 °F 26% 30.04 in 6.2 mi Variable 3.5 mph - N/A   Unknown
5:00 PM 89.6 °F - 48.2 °F 24% 30.04 in 6.2 mi Variable 2.3 mph - N/A   Unknown
5:30 PM 89.6 °F - 48.2 °F 24% 30.04 in 6.2 mi Variable 3.5 mph - N/A   Unknown
6:00 PM 91.4 °F - 46.4 °F 21% 30.04 in 6.2 mi Variable 1.2 mph - N/A   Unknown
6:30 PM 91.4 °F - 48.2 °F 23% 30.01 in 6.2 mi Calm Calm - N/A   Unknown
7:00 PM 87.8 °F - 51.8 °F 29% 30.01 in 6.2 mi Variable 3.5 mph - N/A   Unknown
7:30 PM 86.0 °F - 51.8 °F 31% 30.01 in 6.2 mi NNE 2.3 mph - N/A   Unknown
8:00 PM 78.8 °F - 59.0 °F 51% 30.01 in 6.2 mi Variable 2.3 mph - N/A   Unknown
8:30 PM 71.6 °F - 62.6 °F 73% 30.01 in 6.2 mi Calm Calm - N/A   Unknown
9:00 PM 66.2 °F - 60.8 °F 83% 30.01 in 6.2 mi Calm Calm - N/A   Unknown
9:30 PM 62.6 °F - 59.0 °F 88% 30.01 in 6.2 mi East 1.2 mph - N/A   Unknown
10:00 PM 60.8 °F - 57.2 °F 88% 30.01 in 6.2 mi Calm Calm - N/A   Unknown
10:30 PM 59.0 °F - 57.2 °F 94% 30.01 in 6.2 mi Calm Calm - N/A   Unknown
11:00 PM 59.0 °F - 57.2 °F 94% 30.01 in 6.2 mi Calm Calm - N/A   Unknown
11:30 PM 59.0 °F - 59.0 °F 100% 30.01 in 6.2 mi Calm Calm - N/A   Unknown